Location: Newark
(11.2914°S, 14.4718°E)
Time: 10:57:05
(UTC+00:00)

Tiros 1 despin weight - Pass Details

Date: 22 September 2019
Orbit: 593 x 643 km, 48.2° (Epoch: 19 October)

Event Time Altitude Azimuth Distance (km) Brightness Sun altitude
Rises 07:36:54 0° 240° (WSW) 2,947 ? 39.4°
Reaches altitude 10° 07:39:35 10° 253° (WSW) 2,032 ? 40.1°
Maximum altitude 07:43:24 25° 308° (NW) 1,291 ? 41.0°
Drops below altitude 10° 07:47:11 10° 3° (N) 2,006 ? 41.9°
Sets 07:49:49 0° 16° (NNE) 2,901 ? 42.6°
